EZY747U EGKK-EGPH

Flight info

Callsign EZY747U
Flight time N/A
Altitude 36000
Route LAM L10 BPK UN601 RIBEL DCT INPIP
Aircraft A319/M-SDE3FGHIRWY/LB1

Departure

Time 2026-05-07 14:27
Airport London Gatwick Airport (EGKK)

Arrival

Time N/A
Airport Edinburgh Airport (EGPH)
Time Latitude Longitude Altitude Speed Heading
2026-05-07 13:35 51.15635 -0.17847 209 ft 0 kts 167°
2026-05-07 13:59 51.15650 -0.17852 216 ft 4 kts 171°
2026-05-07 13:59 51.15677 -0.17857 209 ft 4 kts 181°
2026-05-07 13:59 51.15703 -0.17851 214 ft 4 kts 207°
2026-05-07 14:00 51.15717 -0.17829 204 ft 1 kts 257°
2026-05-07 14:00 51.15717 -0.17828 204 ft 0 kts 258°
2026-05-07 14:09 51.15717 -0.17830 204 ft 1 kts 257°
2026-05-07 14:09 51.15716 -0.17838 204 ft 0 kts 256°
2026-05-07 14:12 51.15710 -0.17873 204 ft 5 kts 256°
2026-05-07 14:12 51.15699 -0.17950 206 ft 9 kts 257°
2026-05-07 14:13 51.15684 -0.18064 206 ft 12 kts 260°
2026-05-07 14:13 51.15666 -0.18196 204 ft 12 kts 256°
2026-05-07 14:13 51.15651 -0.18309 204 ft 7 kts 256°
2026-05-07 14:13 51.15613 -0.18349 210 ft 7 kts 182°
2026-05-07 14:14 51.15564 -0.18335 208 ft 6 kts 167°
2026-05-07 14:14 51.15519 -0.18316 207 ft 7 kts 173°
2026-05-07 14:14 51.15512 -0.18313 207 ft 0 kts 168°
2026-05-07 14:15 51.15508 -0.18312 206 ft 2 kts 168°
2026-05-07 14:15 51.15476 -0.18304 204 ft 5 kts 171°
2026-05-07 14:15 51.15456 -0.18298 208 ft 3 kts 167°
2026-05-07 14:16 51.15431 -0.18292 209 ft 4 kts 169°
2026-05-07 14:16 51.15400 -0.18282 204 ft 5 kts 167°
2026-05-07 14:16 51.15382 -0.18275 208 ft 0 kts 166°
2026-05-07 14:16 51.15375 -0.18273 214 ft 1 kts 166°
2026-05-07 14:17 51.15372 -0.18271 212 ft 0 kts 166°
2026-05-07 14:17 51.15367 -0.18271 210 ft 2 kts 173°
2026-05-07 14:18 51.15341 -0.18261 204 ft 5 kts 166°
2026-05-07 14:18 51.15293 -0.18244 209 ft 8 kts 170°
2026-05-07 14:18 51.15276 -0.18239 204 ft 1 kts 169°
2026-05-07 14:18 51.15245 -0.18227 206 ft 9 kts 167°
2026-05-07 14:19 51.15208 -0.18239 210 ft 6 kts 209°
2026-05-07 14:19 51.15189 -0.18295 204 ft 6 kts 257°
2026-05-07 14:19 51.15180 -0.18366 204 ft 7 kts 261°
2026-05-07 14:19 51.15170 -0.18444 211 ft 7 kts 263°
2026-05-07 14:20 51.15160 -0.18526 204 ft 8 kts 256°
2026-05-07 14:20 51.15146 -0.18616 204 ft 9 kts 256°
2026-05-07 14:20 51.15132 -0.18715 203 ft 10 kts 257°
2026-05-07 14:20 51.15118 -0.18823 203 ft 10 kts 258°
2026-05-07 14:21 51.15102 -0.18935 204 ft 10 kts 257°
2026-05-07 14:21 51.15085 -0.19046 214 ft 10 kts 249°
2026-05-07 14:21 51.15069 -0.19158 208 ft 11 kts 258°
2026-05-07 14:21 51.15055 -0.19276 209 ft 11 kts 261°
2026-05-07 14:22 51.15038 -0.19396 208 ft 11 kts 257°
2026-05-07 14:22 51.15021 -0.19525 204 ft 13 kts 259°
2026-05-07 14:22 51.15001 -0.19675 204 ft 15 kts 257°
2026-05-07 14:22 51.14975 -0.19847 209 ft 17 kts 258°
2026-05-07 14:23 51.14949 -0.20046 207 ft 20 kts 258°
2026-05-07 14:23 51.14918 -0.20267 203 ft 21 kts 257°
2026-05-07 14:23 51.14885 -0.20506 203 ft 23 kts 258°
2026-05-07 14:23 51.14854 -0.20749 209 ft 22 kts 256°
2026-05-07 14:24 51.14819 -0.20992 204 ft 21 kts 258°
2026-05-07 14:24 51.14802 -0.21111 204 ft 11 kts 253°
2026-05-07 14:24 51.14775 -0.21249 204 ft 15 kts 259°
2026-05-07 14:24 51.14746 -0.21380 210 ft 11 kts 228°
2026-05-07 14:25 51.14676 -0.21380 207 ft 12 kts 145°
2026-05-07 14:25 51.14638 -0.21338 207 ft 1 kts 154°
2026-05-07 14:25 51.14621 -0.21326 207 ft 4 kts 159°
2026-05-07 14:25 51.14583 -0.21309 205 ft 7 kts 162°
2026-05-07 14:26 51.14536 -0.21256 207 ft 10 kts 129°
2026-05-07 14:26 51.14520 -0.21183 206 ft 5 kts 92°
2026-05-07 14:26 51.14521 -0.21165 202 ft 0 kts 83°
2026-05-07 14:27 51.14535 -0.21049 204 ft 42 kts 78°
2026-05-07 14:27 51.14659 -0.20180 211 ft 116 kts 77°
2026-05-07 14:27 51.14866 -0.18628 372 ft 156 kts 81°
2026-05-07 14:27 51.15111 -0.16924 1072 ft 160 kts 80°
2026-05-07 14:28 51.15378 -0.15160 1706 ft 172 kts 80°
2026-05-07 14:28 51.15671 -0.13197 2183 ft 191 kts 80°
2026-05-07 14:28 51.15981 -0.10994 2562 ft 219 kts 81°
2026-05-07 14:28 51.16292 -0.08451 3001 ft 248 kts 85°
2026-05-07 14:29 51.16555 -0.05581 3613 ft 272 kts 87°